Weather History for Weslaco, TX

Change the Weather History Date:

Tuesday, February 7, 2012

  Actual Average (KMFE) Record (KMFE)
Temperature  
Mean Temperature 56 °F 63 °F  
Max Temperature 62 °F 74 °F 88 °F (1948)
Min Temperature 50 °F 53 °F 30 °F (1926)
Degree Days  
Heating Degree Days 9 5  
Month to date heating degree days 35  
Since 1 July heating degree days 462  
Cooling Degree Days 0 3  
Month to date cooling degree days 19  
Year to date cooling degree days 81  
Growing Degree Days 6 (Base 50)    
Moisture  
Dew Point 49 °F    
Average Humidity 77    
Maximum Humidity 87    
Minimum Humidity 68    
Precipitation  
Precipitation 0.00 in 0.04 in 0.64 in (2012)
Month to date precipitation 0.31  
Year to date precipitation 1.36  
Sea Level Pressure  
Sea Level Pressure 30.16 in    
Wind  
Wind Speed 4 mph (North)    
Max Wind Speed 9 mph    
Max Gust Speed -    
Visibility 10 miles    
Events      
T = Trace of Precipitation, MM = Missing Value Source: NWS Daily Summary

Daily Weather History Graph

Daily Weather History Graph

Search for Another Location

Airport:

Trip Planner

Search our weather history database for the weather conditions in past years. The results will help you decide how hot, cold, wet, or windy it might be!

Date:

Astronomy

Feb. 07, 2012 Rise Set
Actual Time 7:13 AM CST 6:19 PM CST
Civil Twilight 6:49 AM CST 6:43 PM CST
Nautical Twilight 6:21 AM CST 7:10 PM CST
Astronomical Twilight 5:54 AM CST 7:37 PM CST
Moon 6:25 PM CST (2/7) 6:46 AM CST (2/7)
Length of Visible Light 11h 53m
Length of Day
11h 05m
Full, 100% of the Moon is Illuminated
Feb 7
Full
Feb 7
Full
Feb 14
Last Quarter
Feb 21
New
Feb 29
First Quarter

Hourly Weather History & Observations

Time (CST) Temp. Dew Point Humidity Pressure Visibility Wind Dir Wind Speed Gust Speed Precip Events Conditions
12:15 AM 51.8 °F 46.4 °F 82% 30.18 in 10.0 mi Calm Calm - N/A   Scattered Clouds
12:35 AM 50.0 °F 46.4 °F 87% 30.19 in 10.0 mi WNW 3.5 mph - N/A   Mostly Cloudy
12:55 AM 50.0 °F 46.4 °F 87% 30.19 in 10.0 mi NW 4.6 mph - N/A   Overcast
1:15 AM 51.8 °F 46.4 °F 82% 30.19 in 10.0 mi Calm Calm - N/A   Overcast
1:35 AM 51.8 °F 46.4 °F 82% 30.18 in 10.0 mi Calm Calm - N/A   Overcast
1:55 AM 51.8 °F 46.4 °F 82% 30.18 in 10.0 mi Calm Calm - N/A   Overcast
2:15 AM 50.0 °F 46.4 °F 87% 30.17 in 10.0 mi Calm Calm - N/A   Mostly Cloudy
2:35 AM 51.8 °F 46.4 °F 82% 30.16 in 10.0 mi Calm Calm - N/A   Overcast
2:55 AM 51.8 °F 46.4 °F 82% 30.16 in 10.0 mi Calm Calm - N/A   Overcast
3:15 AM 51.8 °F 46.4 °F 82% 30.16 in 10.0 mi Calm Calm - N/A   Overcast
3:35 AM 51.8 °F 46.4 °F 82% 30.15 in 10.0 mi Calm Calm - N/A   Overcast
3:55 AM 51.8 °F 46.4 °F 82% 30.15 in 10.0 mi Calm Calm - N/A   Overcast
4:15 AM 51.8 °F 46.4 °F 82% 30.15 in 10.0 mi Calm Calm - N/A   Overcast
4:35 AM 51.8 °F 46.4 °F 82% 30.14 in 10.0 mi North 4.6 mph - N/A   Overcast
4:55 AM 51.8 °F 46.4 °F 82% 30.13 in 10.0 mi NNE 5.8 mph - N/A   Overcast
5:15 AM 51.8 °F 44.6 °F 76% 30.14 in 10.0 mi NNE 3.5 mph - N/A   Overcast
5:35 AM 51.8 °F 46.4 °F 82% 30.14 in 10.0 mi NNE 3.5 mph - N/A   Overcast
5:55 AM 51.8 °F 44.6 °F 76% 30.14 in 10.0 mi NNE 6.9 mph - N/A   Overcast
6:15 AM 51.8 °F 44.6 °F 76% 30.15 in 10.0 mi North 4.6 mph - N/A   Overcast
6:35 AM 51.8 °F 44.6 °F 76% 30.16 in 10.0 mi North 3.5 mph - N/A   Overcast
6:55 AM 51.8 °F 44.6 °F 76% 30.15 in 10.0 mi North 4.6 mph - N/A   Overcast
7:15 AM 51.8 °F 44.6 °F 76% 30.16 in 10.0 mi North 5.8 mph - N/A   Overcast
7:35 AM 51.8 °F 44.6 °F 76% 30.16 in 10.0 mi North 5.8 mph - N/A   Overcast
7:55 AM 53.6 °F 46.4 °F 77% 30.16 in 10.0 mi North 5.8 mph - N/A   Overcast
8:15 AM 53.6 °F 46.4 °F 77% 30.18 in 10.0 mi North 5.8 mph - N/A   Overcast
8:35 AM 53.6 °F 46.4 °F 77% 30.18 in 10.0 mi North 6.9 mph - N/A   Overcast
8:55 AM 53.6 °F 46.4 °F 77% 30.19 in 10.0 mi North 8.1 mph - N/A   Overcast
9:15 AM 53.6 °F 46.4 °F 77% 30.19 in 10.0 mi North 5.8 mph - N/A   Overcast
9:35 AM 55.4 °F 46.4 °F 72% 30.20 in 10.0 mi North 6.9 mph - N/A   Overcast
9:55 AM 55.4 °F 46.4 °F 72% 30.21 in 10.0 mi NNW 6.9 mph - N/A   Overcast
10:15 AM 55.4 °F 46.4 °F 72% 30.21 in 10.0 mi NNW 8.1 mph - N/A   Overcast
10:35 AM 55.4 °F 48.2 °F 77% 30.21 in 10.0 mi NNW 5.8 mph - N/A   Overcast
10:55 AM 55.4 °F 48.2 °F 77% 30.21 in 10.0 mi NNW 5.8 mph - N/A   Overcast
11:15 AM 55.4 °F 48.2 °F 77% 30.20 in 10.0 mi NNW 6.9 mph - N/A   Overcast
11:35 AM 57.2 °F 48.2 °F 72% 30.18 in 10.0 mi NNW 8.1 mph - N/A   Overcast
11:55 AM 59.0 °F 50.0 °F 72% 30.18 in 10.0 mi North 6.9 mph - N/A   Overcast
12:15 PM 59.0 °F 50.0 °F 72% 30.17 in 10.0 mi North 5.8 mph - N/A   Overcast
12:35 PM 60.8 °F 50.0 °F 68% 30.16 in 10.0 mi North 6.9 mph - N/A   Overcast
12:55 PM 60.8 °F 50.0 °F 68% 30.15 in 10.0 mi North 8.1 mph - N/A   Overcast
1:15 PM 60.8 °F 51.8 °F 72% 30.14 in 10.0 mi NNE 6.9 mph - N/A   Overcast
1:35 PM 60.8 °F 51.8 °F 72% 30.13 in 10.0 mi NNE 5.8 mph - N/A   Overcast
1:55 PM 62.6 °F 51.8 °F 68% 30.12 in 10.0 mi North 8.1 mph - N/A   Overcast
2:15 PM 62.6 °F 53.6 °F 72% 30.12 in 10.0 mi NNE 8.1 mph - N/A   Overcast
2:35 PM 62.6 °F 53.6 °F 72% 30.11 in 10.0 mi NNE 8.1 mph - N/A   Overcast
2:55 PM 62.6 °F 53.6 °F 72% 30.12 in 10.0 mi NNE 6.9 mph - N/A   Overcast
3:15 PM 62.6 °F 53.6 °F 72% 30.12 in 10.0 mi NNE 6.9 mph - N/A   Overcast
3:35 PM 62.6 °F 53.6 °F 72% 30.13 in 10.0 mi NNE 6.9 mph - N/A   Overcast
3:55 PM 62.6 °F 55.4 °F 77% 30.12 in 10.0 mi NE 6.9 mph - N/A   Overcast
4:15 PM 62.6 °F 55.4 °F 77% 30.13 in 10.0 mi NNE 9.2 mph - N/A   Overcast
4:35 PM 62.6 °F 55.4 °F 77% 30.13 in 10.0 mi NNE 6.9 mph - N/A   Overcast
4:55 PM 62.6 °F 55.4 °F 77% 30.13 in 10.0 mi NNE 5.8 mph - N/A   Overcast
5:15 PM 62.6 °F 55.4 °F 77% 30.14 in 10.0 mi NNE 4.6 mph - N/A   Overcast
5:35 PM 62.6 °F 55.4 °F 77% 30.14 in 10.0 mi NNE 5.8 mph - N/A   Overcast
5:55 PM 62.6 °F 55.4 °F 77% 30.15 in 10.0 mi NE 4.6 mph - N/A   Overcast
6:15 PM 60.8 °F 55.4 °F 82% 30.15 in 5.0 mi NE 4.6 mph - N/A   Overcast
6:35 PM 60.8 °F 57.2 °F 88% 30.15 in 5.0 mi NE 5.8 mph - N/A   Overcast
6:55 PM 59.0 °F 57.2 °F 94% 30.16 in 3.0 mi NNE 6.9 mph - N/A   Overcast
7:15 PM 59.0 °F 57.2 °F 94% 30.16 in 3.0 mi NNE 6.9 mph - N/A   Overcast
7:35 PM 59.0 °F 57.2 °F 94% 30.18 in 2.5 mi NNE 4.6 mph - N/A   Overcast
7:55 PM 59.0 °F 57.2 °F 94% 30.18 in 2.0 mi NNE 4.6 mph - N/A   Drizzle
8:15 PM 59.0 °F 57.2 °F 94% 30.19 in 2.5 mi NNE 5.8 mph - N/A   Drizzle
8:35 PM 59.0 °F 57.2 °F 94% 30.20 in 2.5 mi NNE 9.2 mph - 0.01 in   Drizzle
8:55 PM 59.0 °F 55.4 °F 88% 30.21 in 2.5 mi NNE 6.9 mph - 0.01 in   Drizzle
9:15 PM 59.0 °F 55.4 °F 88% 30.21 in 3.0 mi NNE 9.2 mph - 0.01 in   Heavy Drizzle
9:35 PM 59.0 °F 55.4 °F 88% 30.21 in 3.0 mi NNE 13.8 mph - 0.02 in Rain Light Rain
9:55 PM 57.2 °F 55.4 °F 94% 30.22 in 4.0 mi NNE 10.4 mph - 0.03 in Rain Light Rain
10:15 PM 57.2 °F 55.4 °F 94% 30.22 in 3.0 mi NNE 9.2 mph - N/A Rain Light Rain
10:35 PM 57.2 °F 55.4 °F 94% 30.23 in 3.0 mi NNE 8.1 mph - 0.01 in Thunderstorm Drizzle
10:55 PM 57.2 °F 55.4 °F 94% 30.24 in 2.5 mi North 4.6 mph - 0.03 in Rain , Thunderstorm Thunderstorms and Rain
11:15 PM 57.2 °F 55.4 °F 94% 30.24 in 2.5 mi North 5.8 mph - 0.14 in Rain , Thunderstorm Heavy Thunderstorms and Rain
11:35 PM 55.4 °F 55.4 °F 100% 30.24 in 2.5 mi NNE 12.7 mph - 0.34 in Rain , Thunderstorm Heavy Thunderstorms and Rain
11:55 PM 55.4 °F 53.6 °F 94% 30.25 in 4.0 mi North 9.2 mph - 0.42 in Rain , Thunderstorm Heavy Thunderstorms and Rain